OE3MNS-13 Weather Reports


Display with metric or nautical units.
time (UTC)temp
F
wind
direction
speed
MPH
gust
MPH
rain 1hr
in
rain 24hr
in
rain mn
in
humidity
%
barometer
mb
20260503005022 48 290 0.0 1.0 0.00 0.00 0.00 72 1017.7
20260503004037 48 289 0.0 1.0 0.00 0.00 0.00 70 1017.6
20260503003020 48 291 1.0 2.0 0.00 0.00 0.00 70 1017.6
20260503002022 48 0.0 0.0 0.00 0.00 0.00 69 1017.6
20260503001017 49 0.0 0.0 0.00 0.00 0.00 69 1017.7
20260503000019 49 0.0 0.0 0.00 0.00 0.00 69 1017.9
20260502235021 49 291 0.0 1.0 0.00 0.00 0.00 67 1018.0
20260502234017 49 292 0.0 1.0 0.00 0.00 0.00 67 1018.2
20260502233018 49 0.0 0.0 0.00 0.00 0.00 67 1018.2
20260502232021 50 0.0 0.0 0.00 0.00 0.00 67 1018.3
20260502231020 50 0.0 0.0 0.00 0.00 0.00 65 1018.4
20260502230019 50 0.0 0.0 0.00 0.00 0.00 66 1018.5
20260502225024 51 293 0.0 1.0 0.00 0.00 0.00 64 1018.5
20260502224017 51 306 1.0 2.0 0.00 0.00 0.00 62 1018.5
20260502223021 51 334 0.0 1.0 0.00 0.00 0.00 63 1018.6
20260502222017 51 0.0 0.0 0.00 0.00 0.00 63 1018.6
20260502221020 52 0.0 0.0 0.00 0.00 0.00 62 1018.6
20260502220019 52 334 0.0 1.0 0.00 0.00 0.00 61 1018.7
20260502215019 52 334 0.0 1.0 0.00 0.00 0.00 61 1018.7
20260502214019 52 317 0.0 1.0 0.00 0.00 0.00 61 1018.7
20260502213021 53 271 0.0 1.0 0.00 0.00 0.00 60 1018.8
20260502212022 53 271 0.0 1.0 0.00 0.00 0.00 60 1018.9
20260502211021 53 271 0.0 1.0 0.00 0.00 0.00 59 1018.9
20260502210019 54 0.0 0.0 0.00 0.00 0.00 58 1019.1
20260502205017 54 270 0.0 1.0 0.00 0.00 0.00 58 1019.2
20260502204017 54 270 0.0 1.0 0.00 0.00 0.00 57 1019.2
20260502203045 54 270 0.0 1.0 0.00 0.00 0.00 58 1019.3
20260502202022 54 270 1.0 2.0 0.00 0.00 0.00 57 1019.4
20260502201021 55 269 0.0 1.0 0.00 0.00 0.00 56 1019.5
20260502200026 55 269 0.0 1.0 0.00 0.00 0.00 55 1019.5
20260502195020 56 169 1.0 1.0 0.00 0.00 0.00 54 1019.4
20260502194020 56 0.0 0.0 0.00 0.00 0.00 52 1019.5
20260502193018 57 0.0 0.0 0.00 0.00 0.00 52 1019.4
20260502192018 57 0.0 0.0 0.00 0.00 0.00 51 1019.4
20260502191023 58 0.0 0.0 0.00 0.00 0.00 51 1019.4
20260502190020 58 0.0 0.0 0.00 0.00 0.00 49 1019.5
20260502185019 59 0.0 0.0 0.00 0.00 0.00 49 1019.3
20260502184021 60 147 0.0 1.0 0.00 0.00 0.00 47 1019.3
20260502182021 61 147 0.0 1.0 0.00 0.00 0.00 46 1019.0
20260502181020 63 147 1.0 2.0 0.00 0.00 0.00 44 1019.0
20260502163520 73 28 2.0 6.0 0.00 0.00 0.00 30 1019.4
20260502162521 73 23 3.0 7.0 0.00 0.00 0.00 29 1019.4
20260502161538 74 26 2.0 4.0 0.00 0.00 0.00 29 1019.4
20260502160522 74 29 2.0 4.0 0.00 0.00 0.00 29 1019.5
20260502151521 76 357 3.0 7.0 0.00 0.00 0.00 26 1020.2
20260502150523 76 69 3.0 8.0 0.00 0.00 0.00 26 1020.2
20260502130518 75 20 3.0 8.0 0.00 0.00 0.00 28 1021.5
20260502123518 76 345 3.0 8.0 0.00 0.00 0.00 27 1022.0
20260502122520 75 31 3.0 7.0 0.00 0.00 0.00 26 1022.1
20260502121517 76 30 3.0 7.0 0.00 0.00 0.00 28 1022.2
20260502120541 75 26 3.0 8.0 0.00 0.00 0.00 26 1022.3
20260502115522 75 1 2.0 6.0 0.00 0.00 0.00 27 1022.4
20260502114539 74 26 4.0 9.0 0.00 0.00 0.00 27 1022.6
20260502113521 74 15 4.0 8.0 0.00 0.00 0.00 27 1022.8
20260502112519 73 128 1.0 4.0 0.00 0.00 0.00 26 1022.9
20260502111601 73 52 2.0 6.0 0.00 0.00 0.00 26 1023.0
20260502110518 74 18 3.0 7.0 0.00 0.00 0.00 26 1023.2
20260502105520 74 348 3.0 9.0 0.00 0.00 0.00 27 1023.3
20260502104542 73 328 3.0 7.0 0.00 0.00 0.00 29 1023.3
20260502103539 73 11 3.0 7.0 0.00 0.00 0.00 28 1023.5
20260502103100 72 97 3.0 7.0 0.00 0.00 0.00 30 1023.5
20260502102019 72 335 3.0 6.0 0.00 0.00 0.00 32 1023.5
20260502101019 72 288 1.0 3.0 0.00 0.00 0.00 33 1023.7
20260502100519 71 335 2.0 6.0 0.00 0.00 0.00 34 1023.8
20260502091037 69 59 1.0 3.0 0.00 0.00 0.00 38 1024.4
20260502071021 58 336 2.0 4.0 0.00 0.00 0.00 58 1025.2
20260502070017 57 16 1.0 3.0 0.00 0.00 0.00 59 1025.2
20260502065017 56 336 1.0 3.0 0.00 0.00 0.00 60 1025.2
20260502064018 54 341 1.0 2.0 0.00 0.00 0.00 64 1025.2
20260502063019 53 300 0.0 1.0 0.00 0.00 0.00 67 1025.2
20260502062017 52 298 0.0 2.0 0.00 0.00 0.00 69 1025.2
20260502061021 51 317 1.0 2.0 0.00 0.00 0.00 74 1025.1
20260502060020 50 225 0.0 1.0 0.00 0.00 0.00 75 1025.2
20260502055021 48 225 0.0 1.0 0.00 0.00 0.00 79 1025.3
20260502054021 47 225 0.0 1.0 0.00 0.00 0.00 80 1025.2
20260502053027 46 225 0.0 1.0 0.00 0.00 0.00 81 1025.3
20260502052020 45 0.0 0.0 0.00 0.00 0.00 80 1025.3
20260502051020 45 0.0 0.0 0.00 0.00 0.00 82 1025.2
20260502050024 44 0.0 0.0 0.00 0.00 0.00 83 1025.2
20260502045022 43 224 0.0 1.0 0.00 0.00 0.00 85 1025.2
20260502044019 42 224 0.0 1.0 0.00 0.00 0.00 87 1025.0
20260502043039 42 0.0 0.0 0.00 0.00 0.00 87 1025.1
20260502042022 42 0.0 0.0 0.00 0.00 0.00 86 1025.0
20260502041017 41 0.0 0.0 0.00 0.00 0.00 86 1025.0
20260502040022 41 0.0 0.0 0.00 0.00 0.00 85 1025.0
20260502035020 41 0.0 0.0 0.00 0.00 0.00 85 1025.0
20260502034017 42 0.0 0.0 0.00 0.00 0.00 84 1025.0
20260502033044 42 0.0 0.0 0.00 0.00 0.00 84 1025.0
20260502032022 42 0.0 0.0 0.00 0.00 0.00 84 1025.0
20260502031022 42 223 0.0 1.0 0.00 0.00 0.00 83 1024.9
20260502030022 42 0.0 0.0 0.00 0.00 0.00 83 1024.8
20260502025020 42 224 0.0 1.0 0.00 0.00 0.00 83 1024.9
20260502024018 42 0.0 0.0 0.00 0.00 0.00 83 1025.0
20260502023020 42 0.0 0.0 0.00 0.00 0.00 83 1025.0
20260502022019 42 0.0 0.0 0.00 0.00 0.00 82 1024.9
20260502021039 43 0.0 0.0 0.00 0.00 0.00 80 1025.1
20260502020017 44 0.0 0.0 0.00 0.00 0.00 80 1025.1
20260502015043 44 0.0 0.0 0.00 0.00 0.00 80 1025.0
20260502014043 44 225 0.0 1.0 0.00 0.00 0.00 80 1025.0
20260502013019 44 225 0.0 1.0 0.00 0.00 0.00 80 1025.0
20260502012037 44 0.0 0.0 0.00 0.00 0.00 79 1025.1
20260502011023 44 0.0 0.0 0.00 0.00 0.00 78 1025.1
20260502010020 45 0.0 0.0 0.00 0.00 0.00 77 1025.1